Date_and_time,latitude,longitude,wind_speed,RelWindDirFrom,WindDirFrom,air_pressure,air_temperature,relative_humidity,Temp,platform_speed_wrt_ground,air_pressure_at_mean_sea_level,platform_orientation
2018-07-20 23:50,50.630435,-96.9807683333333,8.2,9.8,31,989.86,23.5,65,22.51,0.0,1015.50,90.0
2018-07-21 00:00,50.6304166666667,-96.98076,9.3,10.4,34,989.84,23.6,63,22.53,0.0,1015.50,360.0
2018-07-21 00:10,50.6304283333333,-96.9807733333333,9.5,10.7,32,989.86,23.5,63,22.56,0.0,1015.52,360.0
2018-07-21 00:20,50.6304316666667,-96.9807683333333,9.4,10.9,31,989.94,23.5,63,22.59,0.0,1015.61,360.0
2018-07-21 00:30,50.6304383333333,-96.9807633333333,9.6,11.2,37,989.90,23.5,61,22.60,0.0,1015.57,360.0
2018-07-21 00:40,50.63044,-96.9807616666667,8.6,9.6,29,990.03,23.5,63,22.62,0.0,1015.71,360.0
2018-07-21 00:50,50.63044,-96.9807583333333,8.4,9.8,24,990.19,23.4,64,22.62,0.0,1015.88,360.0
2018-07-21 01:00,50.6304383333333,-96.9807566666667,7.2,8.8,18,990.28,23.3,67,22.65,0.0,1015.97,90.0
2018-07-21 01:10,50.6304383333333,-96.980755,6.9,8.1,12,990.41,23.2,67,22.65,0.0,1016.10,90.0
2018-07-21 01:20,50.6304233333333,-96.9807483333333,8.0,9.3,14,990.48,23.2,69,22.65,0.0,1016.18,90.0
2018-07-21 01:30,50.6304366666667,-96.9807533333333,8.6,10.5,21,990.50,23.2,66,22.66,0.0,1016.21,90.0
2018-07-21 01:40,50.630435,-96.980755,8.2,9.3,30,990.52,23.4,65,22.66,0.0,1016.23,90.0
2018-07-21 01:50,50.6304483333333,-96.9807633333333,7.7,8.8,29,990.62,23.3,66,22.66,0.0,1016.33,90.0
2018-07-21 02:00,50.6304266666667,-96.9807516666667,6.8,7.8,23,990.69,23.3,68,22.66,0.0,1016.40,176.8
2018-07-21 02:10,50.6304333333333,-96.9807533333333,6.3,7.6,19,990.78,23.2,70,22.67,0.0,1016.50,176.8
2018-07-21 02:20,50.630435,-96.9807533333333,6.4,7.4,22,990.86,23.1,70,22.70,0.0,1016.59,176.8
2018-07-21 02:30,50.6304383333333,-96.9807566666667,7.1,8.0,28,990.96,23.1,66,22.70,0.0,1016.69,176.8
2018-07-21 02:40,50.6304483333333,-96.98076,7.2,8.3,33,991.16,23.3,63,22.69,0.0,1016.89,176.8
2018-07-21 02:50,50.63043,-96.980755,6.8,8.3,25,991.33,23.3,63,22.68,0.0,1017.07,176.8
2018-07-21 03:00,50.630445,-96.9807533333333,6.6,7.6,17,991.41,23.2,66,22.67,0.0,1017.16,13.3
2018-07-21 03:10,50.6304433333333,-96.9807516666667,6.5,7.7,21,991.52,23.1,68,22.67,0.0,1017.28,13.3
2018-07-21 03:20,50.6304416666667,-96.9807533333333,6.4,7.7,28,991.65,23.0,68,22.67,0.0,1017.42,13.3
2018-07-21 03:30,50.6304416666667,-96.9807566666667,7.3,8.4,31,991.72,23.1,65,22.68,0.0,1017.48,13.3
2018-07-21 03:40,50.63044,-96.9807583333333,7.4,8.5,31,991.84,23.2,63,22.68,0.0,1017.59,13.3
2018-07-21 03:50,50.63044,-96.9807583333333,9.1,11.2,42,991.84,23.2,63,22.68,0.0,1017.60,13.3
2018-07-21 04:00,50.6304466666667,-96.9807583333333,10.3,12.1,45,991.86,23.2,61,22.68,0.0,1017.62,38.0
2018-07-21 04:10,50.6304516666667,-96.9807716666667,10.7,12.8,45,991.90,23.2,61,22.69,0.0,1017.66,38.0
2018-07-21 04:20,50.6304516666667,-96.9807616666667,12.2,14.4,48,991.90,23.2,59,22.68,0.0,1017.66,38.0
2018-07-21 04:30,50.6304483333333,-96.9807583333333,12.8,15.1,47,991.92,23.2,59,22.68,0.0,1017.68,38.0
2018-07-21 04:40,50.63045,-96.9807666666667,13.7,16.2,48,991.91,23.1,59,22.68,0.0,1017.67,38.0
2018-07-21 04:50,50.6304483333333,-96.9807683333333,14.2,16.4,48,991.90,23.1,59,22.67,0.0,1017.67,38.0
2018-07-21 05:00,50.63045,-96.98077,13.9,17.1,47,991.89,23.0,62,22.65,0.0,1017.67,360.0
2018-07-21 05:10,50.6304483333333,-96.9807666666667,16.0,19.0,51,991.79,23.0,59,22.62,0.0,1017.56,360.0
2018-07-21 05:20,50.6304333333333,-96.980765,15.4,18.1,55,991.86,23.0,58,22.62,0.0,1017.63,360.0
2018-07-21 05:30,50.6304683333333,-96.9807516666667,14.5,17.5,58,991.88,22.9,59,22.60,0.0,1017.65,360.0
2018-07-21 05:40,50.6304466666667,-96.9807583333333,14.9,17.9,64,991.90,22.9,58,22.56,0.0,1017.68,360.0
2018-07-21 05:50,50.6304483333333,-96.980755,13.2,15.2,68,991.98,22.6,61,22.53,0.0,1017.76,360.0
2018-07-21 06:00,50.6304483333333,-96.980755,14.0,15.8,70,992.00,22.5,61,22.51,0.0,1017.79,347.4
2018-07-21 06:10,50.6304466666667,-96.980755,12.8,14.9,72,992.01,22.3,61,22.49,0.0,1017.82,347.4
2018-07-21 06:20,50.6304466666667,-96.9807566666667,11.2,12.9,73,992.10,22.2,61,22.47,0.0,1017.91,347.4
2018-07-21 06:30,50.6304483333333,-96.9807583333333,9.9,11.7,79,992.10,22.0,63,22.46,0.0,1017.92,347.4
2018-07-21 06:40,50.6304483333333,-96.98076,9.1,11.3,83,992.08,21.9,64,22.46,0.0,1017.91,347.4
2018-07-21 06:50,50.6304483333333,-96.98076,7.8,9.6,86,992.07,21.8,66,22.45,0.0,1017.91,347.4
2018-07-21 07:00,50.6304483333333,-96.9807616666667,8.2,9.8,87,992.04,21.7,67,22.45,0.0,1017.88,0.0
2018-07-21 07:10,50.6304483333333,-96.98076,8.0,10.1,91,992.03,21.6,68,22.44,0.0,1017.87,0.0
2018-07-21 07:20,50.6304483333333,-96.98076,8.0,9.9,95,992.02,21.6,70,22.45,0.0,1017.87,0.0
2018-07-21 07:30,50.63043,-96.9807633333333,7.5,8.7,95,991.99,21.6,71,22.46,0.0,1017.84,0.0
2018-07-21 07:40,50.6304333333333,-96.98076,7.5,8.9,99,991.99,21.6,70,22.47,0.0,1017.85,0.0
2018-07-21 07:50,50.6304416666667,-96.9807633333333,6.8,7.7,100,992.05,21.7,71,22.47,0.0,1017.92,0.0
2018-07-21 08:00,50.6304416666667,-96.980765,7.3,8.9,110,992.12,21.8,66,22.47,0.0,1017.99,360.0
2018-07-21 08:10,50.6304383333333,-96.980765,5.8,7.0,115,992.19,21.7,67,22.47,0.0,1018.08,360.0
2018-07-21 08:20,50.6304383333333,-96.980765,6.1,7.4,114,992.34,21.7,68,22.47,0.0,1018.23,360.0
2018-07-21 08:30,50.6304566666667,-96.980765,6.0,7.2,97,992.54,21.6,71,22.46,0.0,1018.45,360.0
2018-07-21 08:40,50.6304433333333,-96.9807633333333,8.1,9.5,98,992.59,21.5,71,22.46,0.0,1018.51,360.0
2018-07-21 08:50,50.6304416666667,-96.980765,7.9,9.1,113,992.61,21.4,70,22.46,0.0,1018.54,360.0
2018-07-21 09:00,50.6304416666667,-96.9807666666667,8.0,9.8,107,992.66,21.3,70,22.45,0.0,1018.59,192.6
2018-07-21 09:10,50.6304433333333,-96.980765,7.9,9.2,105,992.78,21.1,71,22.44,0.0,1018.73,192.6
2018-07-21 09:20,50.6304433333333,-96.980765,7.9,9.5,111,992.83,21.0,70,22.44,0.0,1018.79,192.6
2018-07-21 09:30,50.6304483333333,-96.9807766666667,7.5,9.4,130,992.92,20.9,70,22.43,0.0,1018.88,192.6
2018-07-21 09:40,50.6304466666667,-96.98077,5.6,7.8,146,993.07,20.5,71,22.43,0.0,1019.05,192.6
2018-07-21 09:50,50.630445,-96.9807716666667,3.1,5.0,187,993.22,19.8,76,22.42,0.0,1019.24,192.6
2018-07-21 10:00,50.63044,-96.980765,2.3,3.4,189,993.27,19.3,78,22.41,0.0,1019.31,228.3
2018-07-21 10:10,50.6304383333333,-96.9807666666667,2.3,3.1,220,993.40,18.9,79,22.40,0.0,1019.46,228.3
2018-07-21 10:20,50.63042,-96.9807666666667,1.8,2.7,234,993.42,18.2,82,22.38,0.0,1019.52,228.3
2018-07-21 10:30,50.63044,-96.9807766666667,1.4,2.1,246,993.52,17.7,83,22.37,0.0,1019.65,228.3
2018-07-21 10:40,50.6304433333333,-96.9807683333333,1.2,1.9,224,993.60,17.5,85,22.37,0.0,1019.74,228.3
2018-07-21 10:50,50.6304433333333,-96.9807683333333,0.9,1.4,237,993.62,17.6,86,22.36,0.0,1019.76,228.3
2018-07-21 11:00,50.6304416666667,-96.98077,1.5,2.2,226,993.64,17.6,86,22.36,0.0,1019.80,0.0
2018-07-21 11:10,50.6304233333333,-96.98077,1.2,1.9,230,993.79,17.6,86,22.36,0.0,1019.95,0.0
2018-07-21 11:20,50.6304383333333,-96.980765,1.4,2.1,239,993.88,17.6,85,22.35,0.0,1020.05,0.0
2018-07-21 11:30,50.6304383333333,-96.9807633333333,0.2,1.0,276,993.89,17.7,85,22.35,0.0,1020.07,0.0
2018-07-21 11:40,50.63044,-96.9807666666667,0.4,2.8,78,993.96,18.4,85,22.34,0.0,1020.14,0.0
2018-07-21 11:50,50.6304666666667,-96.980765,4.7,8.3,89,993.91,19.5,79,22.34,0.0,1020.06,0.0
2018-07-21 12:00,50.6304483333333,-96.980765,6.8,8.7,94,994.07,20.7,72,22.33,0.0,1020.20,360.0
2018-07-21 12:10,50.63045,-96.9807683333333,7.1,9.3,91,994.14,20.9,72,22.31,0.0,1020.29,360.0
2018-07-21 12:20,50.6304416666667,-96.9807716666667,7.4,9.2,100,994.24,21.0,70,22.31,0.0,1020.40,360.0
2018-07-21 12:30,50.6304483333333,-96.9807683333333,7.1,8.9,97,994.28,20.9,73,22.29,0.0,1020.47,360.0
2018-07-21 12:40,50.6304483333333,-96.980765,7.9,10.3,85,994.35,20.8,77,22.28,0.0,1020.53,360.0
2018-07-21 12:50,50.63045,-96.9807633333333,8.1,10.9,83,994.47,20.5,78,22.28,0.0,1020.67,360.0
2018-07-21 13:00,50.6304483333333,-96.9807366666667,7.6,9.7,84,994.58,20.3,78,22.27,0.0,1020.79,73.2
2018-07-21 13:10,50.6304483333333,-96.980745,7.2,9.5,83,994.65,20.2,78,22.26,0.0,1020.87,73.2
2018-07-21 13:20,50.6304483333333,-96.9807466666667,7.2,9.4,83,994.68,20.2,79,22.25,0.0,1020.89,73.2
2018-07-21 13:30,50.6304466666667,-96.9807483333333,6.6,8.6,84,994.73,20.3,80,22.23,0.0,1020.91,73.2
2018-07-21 13:40,50.6304466666667,-96.98075,7.2,9.3,81,994.70,20.2,82,22.23,0.0,1020.84,73.2
2018-07-21 13:50,50.630445,-96.9807516666667,7.5,9.1,78,994.71,20.2,81,22.23,0.0,1020.80,73.2
2018-07-21 14:00,50.6304433333333,-96.98079,6.9,9.1,79,994.71,20.2,80,22.23,0.0,1020.78,270.0
2018-07-21 14:10,50.6304466666667,-96.9807716666667,6.1,8.2,82,994.73,20.4,77,22.23,0.0,1020.79,270.0
2018-07-21 14:20,50.6304433333333,-96.9807683333333,5.3,7.7,80,994.71,20.5,77,22.23,0.0,1020.77,270.0
2018-07-21 14:30,50.6304433333333,-96.9807666666667,4.8,5.9,78,994.65,20.5,77,22.24,0.0,1020.71,270.0
2018-07-21 14:40,50.6304416666667,-96.9807633333333,4.2,5.8,89,994.69,20.8,74,22.25,0.0,1020.75,270.0
2018-07-21 14:50,50.6304383333333,-96.9807516666667,4.6,6.1,89,994.75,21.1,72,22.26,0.0,1020.81,270.0
2018-07-21 15:00,50.6304433333333,-96.980755,4.0,6.2,86,994.82,21.0,74,22.27,0.0,1020.89,167.4
2018-07-21 15:10,50.6304433333333,-96.9807583333333,3.9,5.4,99,994.82,21.3,73,22.29,0.0,1020.87,167.4
2018-07-21 15:20,50.63044,-96.9807566666667,4.3,6.4,92,994.76,21.8,70,22.30,0.0,1020.79,167.4
2018-07-21 15:30,50.6304383333333,-96.9807566666667,5.2,7.1,78,994.75,21.6,70,22.30,0.0,1020.79,167.4
2018-07-21 15:40,50.6304383333333,-96.9807566666667,5.9,7.5,74,994.71,21.2,72,22.29,0.0,1020.77,167.4
2018-07-21 15:50,50.6304383333333,-96.9807566666667,5.6,7.5,66,994.68,20.8,72,22.28,0.0,1020.76,167.4
2018-07-21 16:00,50.6304383333333,-96.9807566666667,4.0,6.2,70,994.76,21.0,71,22.28,0.0,1020.81,248.5
2018-07-21 16:10,50.6304383333333,-96.9807566666667,4.8,6.2,57,994.76,20.9,71,22.27,0.0,1020.82,248.5
2018-07-21 16:20,50.6304383333333,-96.9807566666667,4.0,5.6,54,994.75,21.0,71,22.32,0.0,1020.80,248.5
2018-07-21 16:30,50.630445,-96.9807616666667,3.4,5.5,64,994.72,21.3,70,22.33,0.0,1020.75,248.5
2018-07-21 16:40,50.6304466666667,-96.9807683333333,3.3,5.3,54,994.67,21.4,69,22.36,0.0,1020.68,248.5
2018-07-21 16:50,50.63044,-96.9807733333333,4.4,5.9,50,994.61,21.2,69,22.43,0.0,1020.63,248.5
2018-07-21 17:00,50.6304433333333,-96.98077,4.7,6.2,34,994.56,21.1,70,22.48,0.0,1020.57,90.0
2018-07-21 17:10,50.6304416666667,-96.9807733333333,5.2,7.4,34,994.55,21.2,67,22.50,0.0,1020.54,90.0
2018-07-21 17:20,50.63043,-96.9807566666667,6.3,8.6,37,994.51,21.6,62,22.47,0.0,1020.48,90.0
2018-07-21 17:30,50.63043,-96.98075,7.0,8.8,36,994.44,21.6,59,22.46,0.0,1020.43,90.0
2018-07-21 17:40,50.63043,-96.980755,7.9,10.0,23,994.39,21.4,63,22.47,0.0,1020.40,90.0
2018-07-21 17:50,50.6304316666667,-96.9807583333333,7.6,10.0,19,994.38,21.5,63,22.65,0.0,1020.38,90.0
2018-07-21 18:00,50.6304583333333,-96.9807866666667,7.6,9.2,12,994.32,21.6,59,22.70,0.0,1020.32,309.1
2018-07-21 18:10,50.6304383333333,-96.9807483333333,8.5,10.2,12,994.24,21.5,61,22.74,0.0,1020.24,309.1
2018-07-21 18:20,50.6304416666667,-96.9807566666667,8.0,10.2,13,994.27,21.7,60,22.76,0.0,1020.25,309.1
2018-07-21 18:30,50.63045,-96.9807783333333,7.5,9.7,16,994.25,21.7,59,22.82,0.0,1020.22,309.1
2018-07-21 18:40,50.6304383333333,-96.98077,8.3,10.2,19,994.16,21.8,58,22.81,0.0,1020.13,309.1
2018-07-21 18:50,50.6304433333333,-96.9807716666667,9.2,11.3,13,994.10,21.8,61,22.81,0.0,1020.08,309.1
2018-07-21 19:00,50.6304433333333,-96.9807633333333,8.3,10.1,11,994.12,21.8,60,22.82,0.0,1020.09,270.0
2018-07-21 19:10,50.6304416666667,-96.98076,8.9,10.4,15,994.11,21.9,58,22.91,0.0,1020.06,270.0
2018-07-21 19:20,50.6304416666667,-96.98076,8.3,10.1,15,994.03,22.0,58,22.93,0.0,1019.97,270.0
2018-07-21 19:30,50.6304433333333,-96.9807633333333,8.3,9.6,16,993.97,22.2,57,22.93,0.0,1019.91,270.0
2018-07-21 19:40,50.6304466666667,-96.9807783333333,7.7,9.9,18,993.88,22.3,56,23.01,0.0,1019.81,270.0
2018-07-21 19:50,50.6304566666667,-96.9807783333333,7.2,8.7,13,993.84,22.4,54,22.97,0.0,1019.75,270.0
2018-07-21 20:00,50.630455,-96.9807733333333,6.8,7.9,17,993.85,22.7,52,23.01,0.0,1019.76,345.5
2018-07-21 20:10,50.6304533333333,-96.9807716666667,6.3,8.0,19,993.87,22.9,51,23.01,0.0,1019.76,345.5
2018-07-21 20:20,50.6304533333333,-96.9807733333333,6.7,8.5,24,993.74,23.0,52,22.97,0.0,1019.63,345.5
2018-07-21 20:30,50.6304533333333,-96.9807716666667,6.9,9.3,19,993.69,22.9,54,22.95,0.0,1019.57,345.5
2018-07-21 20:40,50.6304433333333,-96.9808,6.0,7.8,22,993.56,23.1,49,23.18,0.0,1019.44,345.5
2018-07-21 20:50,50.6304433333333,-96.9807733333333,6.5,7.8,23,993.46,23.2,49,23.30,0.0,1019.32,345.5
2018-07-21 21:00,50.6304483333333,-96.98077,5.3,6.9,19,993.53,23.3,49,23.32,0.0,1019.39,122.3
2018-07-21 21:10,50.6304483333333,-96.9807666666667,4.3,5.8,35,993.51,23.4,48,23.26,0.0,1019.36,122.3
2018-07-21 21:20,50.6304483333333,-96.980765,5.1,6.8,31,993.41,23.5,50,23.21,0.0,1019.24,122.3
2018-07-21 21:30,50.6304533333333,-96.9807533333333,6.7,8.1,30,993.13,23.4,51,23.19,0.0,1018.95,122.3
2018-07-21 21:40,50.6304516666667,-96.9807533333333,6.5,8.0,32,992.98,23.5,50,23.24,0.0,1018.79,122.3
2018-07-21 21:50,50.6304533333333,-96.9807916666667,5.1,6.8,40,992.98,23.6,49,23.39,0.0,1018.77,122.3
2018-07-21 22:00,50.6304516666667,-96.980775,3.6,5.4,34,992.95,23.8,46,23.46,0.0,1018.72,360.0
2018-07-21 22:10,50.6304416666667,-96.9807933333333,2.9,4.7,24,993.01,24.1,44,23.44,0.0,1018.77,360.0
2018-07-21 22:20,50.6304466666667,-96.9807816666667,2.5,3.9,42,993.00,24.4,43,23.65,0.0,1018.75,360.0
2018-07-21 22:30,50.6304433333333,-96.98075,2.7,4.2,47,992.91,24.4,43,23.54,0.0,1018.66,360.0
2018-07-21 22:40,50.6304516666667,-96.980755,1.1,3.0,26,992.93,24.8,40,23.45,0.0,1018.65,360.0
2018-07-21 22:50,50.6304566666667,-96.9807533333333,1.6,3.0,44,992.93,25.5,40,23.59,0.0,1018.62,360.0
2018-07-21 23:00,50.6304583333333,-96.9807533333333,0.9,2.3,58,993.03,25.7,37,23.69,0.0,1018.71,66.4
2018-07-21 23:10,50.63043,-96.980775,0.9,1.8,42,993.19,25.9,37,23.80,0.0,1018.85,66.4
2018-07-21 23:20,50.6304483333333,-96.9807683333333,0.7,1.6,131,993.14,26.2,36,23.76,0.0,1018.79,66.4
